Location: Knowlton
(51.2333°N, 1.2667°E)
Time: 10:22:35
(UTC+00:00)

Aureole 1 Rocket - Pass Details

Date: 18 April 2021
Orbit: 379 x 1372 km, 73.9° (Epoch: 16 May)

Event Time Altitude Azimuth Distance (km) Brightness Sun altitude
Exits shadow 22:38:07 58° 95° (E) 934 3.7 -25.5°
Drops below altitude 10° 22:42:31 10° 32° (NNE) 2,113 6.2 -25.7°
Sets 22:44:32 0° 29° (NNE) 2,898 7.1 -25.8°
